Wind_Speed
91 90 94 98 96 95 94 93 93 94 97 94 92 90 87 90 90 90 92 94 96 98 101 101 99 97 97 97 96 96 97 99 99 101 102 106 106 104 106 109 109 108 110 109
88 91 95 95 98 98 98 96 95 97 98 95 94 92 93 93 97 96 98 99 99 100 104 105 106 106 106 107 106 105 105 106 106 109 112 115 115 113 113 113 111 109 110 111
91 90 89 91 92 93 97 97 95 96 102 99 96 94 94 98 100 102 103 104 106 111 110 110 110 108 108 110 111 111 110 111 112 115 118 119 115 115 114 115 116 112 103 96
88 92 90 88 88 90 90 91 91 91 93 98 98 95 100 103 104 102 103 106 108 110 110 112 114 114 114 112 114 115 114 115 113 114 117 117 117 116 110 106 103 98 94 86
69 76 80 86 92 92 93 95 98 100 100 104 107 107 98 102 102 104 108 107 106 109 114 115 113 110 106 103 102 103 102 101 100 99 97 98 96 91 89 90 89 84 80 78
61 65 70 75 80 78 77 81 87 87 88 90 92 98 95 98 104 107 106 107 108 105 103 101 98 97 94 92 89 88 88 87 86 86 87 88 87 86 84 81 77 75 74 73
54 60 65 66 68 70 74 76 78 80 81 81 86 88 88 92 100 95 97 99 96 92 90 92 91 89 88 86 87 88 88 88 88 88 88 88 84 78 75 72 69 67 65 62
51 57 60 62 66 68 70 70 71 72 76 79 80 80 81 85 88 86 83 84 84 83 81 79 78 79 78 78 77 74 74 74 76 77 75 75 78 73 66 65 64 62 61 58
45 48 44 51 54 60 62 63 65 67 67 67 68 70 71 70 71 71 73 72 73 73 70 70 69 69 66 64 65 64 62 63 65 65 63 62 62 60 60 62 66 67 65 64
52 51 52 52 54 53 57 60 58 58 58 59 61 65 69 71 70 69 71 73 73 73 72 70 71 73 72 72 71 69 69 68 69 72 72 67 64 65 69 70 72 73 72 72
57 58 60 62 64 63 65 67 68 69 68 68 68 70 73 75 76 78 78 78 78 78 78 78 80 81 83 82 82 82 81 81 80 78 76 77 77 77 77 76 79 81 81 82
63 64 65 65 64 66 66 68 69 69 69 70 70 68 73 77 80 80 77 78 79 80 81 82 81 83 84 86 88 88 87 86 85 87 88 86 86 88 88 87 88 89 89 90
64 68 70 70 70 71 72 74 76 77 75 73 74 72 79 83 84 84 83 87 87 87 86 89 89 90 91 92 93 94 93 94 92 92 93 94 95 96 97 97 95 96 97 99
65 68 70 73 74 74 76 78 81 80 78 81 79 84 86 88 90 88 89 92 94 95 94 95 96 98 98 99 99 100 101 100 99 97 95 94 95 95 95 96 98 100 102 103
63 64 67 70 73 75 78 83 83 82 86 85 86 87 90 92 92 93 94 95 97 99 101 101 102 104 107 107 104 100 99 98 96 93 93 93 94 95 95 98 101 102 103 102
59 60 62 68 71 73 75 79 82 86 87 86 89 87 91 93 96 98 99 99 101 103 106 108 102 98 94 90 88 87 83 83 84 83 84 87 88 89 88 88 88 89 92 94
54 57 59 65 69 73 77 83 86 88 92 93 95 95 96 96 96 98 98 97 93 89 85 80 76 73 70 70 70 69 70 71 71 72 72 73 74 75 77 80 81 83 84 86
50 50 51 55 59 59 65 68 73 74 78 80 80 78 75 73 71 73 72 72 68 65 64 63 63 62 61 60 57 56 56 57 57 58 57 58 62 67 70 72 74 75 77 78
53 53 52 54 58 57 61 64 67 69 69 70 67 65 63 60 60 60 56 56 55 53 51 49 49 49 49 47 45 44 46 45 46 47 49 53 56 58 63 65 66 68 69 71
53 54 54 58 55 54 59 64 67 64 61 63 60 54 51 50 50 42 38 38 36 36 35 34 33 29 26 24 25 26 28 31 32 36 42 46 50 52 53 55 58 60 60 57
56 55 57 56 52 52 54 58 63 55 51 48 43 41 40 35 32 30 28 27 28 26 24 21 15 14 13 13 13 15 17 21 25 27 31 35 40 47 48 49 52 54 53 53
55 57 57 57 52 47 46 51 51 44 40 38 32 31 27 26 26 23 21 20 21 20 17 13 11 7 5 4 6 9 13 18 22 27 32 35 40 43 44 46 50 52 50 48
56 56 57 55 49 43 42 43 38 35 30 28 27 24 24 24 22 19 18 18 16 14 12 9 10 10 6 6 4 11 15 19 25 31 34 37 41 44 46 46 49 51 49 45
51 54 51 44 43 38 39 34 29 25 25 25 21 21 20 19 17 16 15 12 12 9 15 13 15 8 1 3 5 13 18 24 36 38 37 40 43 44 45 43 42 41 44 45
51 49 43 41 36 36 30 25 22 24 23 19 18 18 18 17 12 13 12 9 16 17 17 14 8 4 4 10 15 19 22 31 39 41 44 46 45 45 44 44 44 43 44 43
49 41 37 35 30 28 24 23 23 23 17 18 16 15 15 13 13 13 17 18 22 22 17 12 7 2 9 15 19 24 30 38 41 43 48 49 49 45 44 45 44 41 40 39
Wind_Direction
219 222 224 227 229 232 235 237 240 244 244 246 249 248 251 253 255 255 257 259 261 262 263 265 264 263 265 264 264 265 266 268 271 273 274 273 272 274 276 278 282 280 280 283
221 223 225 228 231 234 236 238 241 245 247 247 250 252 252 254 255 256 258 259 262 263 263 265 266 267 268 269 269 271 272 273 274 274 275 276 275 275 276 279 281 281 281 281
226 226 227 228 231 234 237 240 241 246 248 248 251 253 255 255 256 257 258 261 262 264 267 269 270 271 272 273 274 275 274 274 273 273 273 274 275 275 276 277 278 280 282 282
232 231 232 233 236 237 238 239 241 243 248 251 252 254 257 259 259 261 263 263 265 267 269 270 270 269 270 271 272 273 272 273 274 275 275 276 277 278 279 279 280 279 280 279
228 233 236 239 240 239 241 244 245 247 249 251 253 254 256 259 260 261 262 264 267 266 266 268 268 268 269 270 271 272 273 274 274 274 275 276 276 277 276 276 277 279 277 276
224 226 229 234 238 240 242 245 247 248 252 253 254 255 254 257 259 260 260 260 261 262 264 266 267 268 268 269 269 270 270 271 271 272 272 273 274 274 275 277 276 275 275 273
227 230 231 232 234 234 235 237 241 241 244 246 249 251 251 252 254 256 258 258 259 262 264 265 267 267 267 267 267 267 268 268 270 271 271 274 275 276 274 270 268 269 270 270
233 232 234 234 234 236 238 240 243 245 246 247 250 252 255 256 257 258 259 262 263 262 263 265 265 265 265 266 266 266 267 268 269 270 270 271 273 273 273 273 271 268 265 263
239 231 239 234 237 237 238 239 240 244 247 247 248 248 248 249 251 254 255 255 256 257 258 260 261 262 261 263 265 265 264 265 266 266 267 267 269 269 269 268 270 273 274 273
237 240 242 240 243 247 242 239 242 245 245 249 252 253 252 249 252 258 261 261 260 258 257 260 264 265 266 267 266 263 261 263 265 266 269 269 266 264 263 263 266 268 268 269
238 240 241 242 242 244 245 244 246 246 248 249 251 254 257 261 261 260 258 260 263 265 266 265 265 268 270 270 270 267 267 266 265 266 267 268 269 270 270 270 269 270 270 269
244 246 247 248 248 249 250 252 251 252 252 252 252 256 259 261 262 262 264 265 265 265 265 264 265 266 266 267 267 267 267 267 267 268 268 267 266 268 269 270 270 271 272 273
249 251 253 253 255 256 256 256 256 257 258 259 259 260 261 262 263 265 267 267 267 268 268 268 269 269 270 270 270 270 270 269 269 268 267 266 265 266 268 270 271 272 272 273
250 252 254 255 255 256 257 258 258 258 259 259 261 260 261 261 263 266 267 268 269 270 269 270 271 272 272 272 273 272 272 271 270 269 267 267 268 268 269 270 271 272 272 272
251 253 255 258 259 259 260 259 260 261 261 261 261 263 263 266 267 266 266 268 270 272 273 273 273 274 275 275 274 272 270 270 270 269 269 267 268 269 271 271 272 273 273 273
254 256 257 260 261 262 262 262 264 265 264 263 263 263 264 266 267 268 269 270 271 271 272 273 272 273 272 271 269 270 270 270 269 269 269 270 270 270 272 272 272 273 273 273
262 264 264 263 263 264 265 266 266 266 267 268 269 268 267 267 268 269 270 271 271 272 273 274 274 273 272 270 269 270 271 270 270 269 267 268 270 271 273 273 272 271 272 274
267 271 270 269 267 265 264 264 266 268 269 269 270 272 273 271 270 270 272 274 277 277 275 274 273 273 271 271 271 272 272 272 272 271 272 274 273 273 274 276 277 277 277 277
268 271 272 274 275 270 268 266 266 268 270 272 275 275 272 272 270 270 273 272 272 273 274 273 274 274 274 275 275 272 270 272 273 275 274 273 275 274 275 279 281 281 282 282
271 273 275 275 273 269 270 272 269 269 272 277 276 274 274 271 272 273 267 271 271 271 271 273 275 280 277 273 271 272 274 275 275 273 273 278 285 283 283 285 283 282 282 284
273 275 277 274 272 269 267 270 273 276 276 275 272 271 267 266 266 267 268 270 270 271 270 273 275 271 273 273 274 283 286 288 293 298 300 295 286 286 285 286 285 283 284 283
276 280 281 280 278 276 272 271 276 278 273 272 266 260 264 262 263 266 263 267 271 274 281 279 265 241 218 247 281 298 334 326 315 310 302 298 299 296 294 291 286 284 283 284
279 280 280 282 283 275 272 272 271 270 265 257 255 257 255 261 266 268 270 262 250 251 258 180 154 140 169 211 296 337 335 331 322 314 310 305 304 302 296 290 286 285 287 289
278 280 282 286 278 276 274 272 271 260 251 252 256 258 261 262 262 257 258 258 256 189 154 157 167 174 109 338 331 339 335 328 334 329 325 321 313 305 301 297 292 289 290 290
283 283 288 281 278 274 272 265 252 246 245 248 248 250 252 256 261 260 260 222 159 168 156 156 148 112 47 47 30 5 349 345 344 341 338 337 327 316 312 308 301 295 290 288
288 291 283 276 273 266 256 248 241 243 242 239 242 247 257 266 259 242 166 163 160 150 155 156 148 100 47 34 18 2 348 353 352 349 345 339 331 320 313 307 303 297 292 289
Height
10706 10715 10719 10716 10726 10736 10748 10756 10762 10756 10765 10777 10785 10799 10801 10800 10804 10806 10806 10806 10807 10806 10802 10803 10810 10821 10822 10823 10825 10827 10828 10827 10828 10825 10818 10807 10810 10812 10809 10803 10806 10806 10804 10803
10695 10700 10697 10713 10722 10728 10738 10746 10752 10744 10752 10768 10771 10779 10785 10785 10785 10787 10786 10788 10788 10785 10777 10788 10794 10801 10803 10804 10806 10808 10807 10807 10804 10798 10789 10786 10788 10791 10789 10787 10784 10776 10776 10779
10678 10683 10694 10702 10712 10720 10728 10737 10739 10738 10737 10753 10757 10765 10764 10762 10764 10768 10770 10771 10769 10764 10773 10775 10778 10779 10781 10782 10782 10783 10783 10782 10778 10771 10765 10765 10768 10770 10769 10766 10762 10760 10756 10754
10668 10679 10687 10695 10703 10708 10715 10717 10721 10725 10724 10736 10745 10751 10745 10744 10750 10752 10751 10754 10755 10758 10757 10753 10755 10760 10761 10758 10757 10757 10758 10757 10752 10747 10744 10743 10743 10743 10743 10739 10739 10738 10737 10737
10657 10668 10676 10680 10682 10695 10699 10702 10708 10712 10716 10715 10720 10728 10727 10722 10726 10726 10730 10736 10738 10733 10731 10733 10733 10737 10741 10740 10734 10733 10733 10733 10730 10725 10721 10721 10723 10723 10718 10715 10714 10718 10718 10717
10651 10656 10662 10666 10673 10685 10688 10689 10695 10697 10699 10704 10700 10701 10713 10704 10703 10708 10712 10712 10714 10718 10717 10714 10714 10715 10719 10719 10717 10715 10714 10711 10709 10707 10703 10700 10703 10704 10701 10696 10696 10694 10697 10700
10642 10645 10650 10657 10661 10667 10670 10672 10672 10677 10679 10683 10678 10680 10689 10688 10683 10690 10691 10695 10700 10703 10701 10696 10696 10696 10697 10698 10697 10694 10693 10690 10688 10686 10686 10684 10683 10684 10682 10678 10677 10679 10680 10680
10627 10632 10638 10643 10647 10651 10653 10657 10658 10661 10665 10668 10670 10675 10670 10674 10674 10675 10677 10678 10680 10683 10683 10681 10679 10679 10678 10678 10677 10675 10673 10671 10669 10667 10667 10666 10665 10665 10661 10658 10659 10663 10664 10666
10618 10625 10630 10633 10633 10638 10645 10647 10651 10652 10655 10656 10655 10654 10653 10653 10656 10656 10659 10664 10664 10667 10667 10665 10662 10662 10662 10661 10661 10660 10659 10657 10655 10654 10655 10655 10654 10652 10650 10646 10642 10641 10644 10647
10611 10616 10618 10621 10625 10629 10633 10636 10639 10641 10643 10644 10645 10642 10640 10642 10646 10647 10647 10645 10646 10647 10649 10649 10646 10646 10644 10643 10644 10646 10647 10647 10643 10637 10636 10639 10641 10639 10635 10633 10630 10629 10629 10630
10602 10605 10607 10610 10613 10618 10618 10622 10624 10626 10631 10630 10630 10630 10626 10627 10626 10625 10628 10629 10628 10629 10632 10633 10630 10626 10625 10627 10627 10626 10626 10625 10622 10622 10621 10618 10617 10617 10617 10617 10611 10608 10608 10608
10589 10591 10594 10597 10602 10603 10606 10606 10607 10609 10612 10613 10614 10619 10612 10607 10602 10604 10610 10611 10609 10608 10607 10606 10609 10605 10604 10600 10598 10599 10601 10602 10604 10604 10603 10602 10600 10596 10593 10592 10590 10587 10585 10583
10579 10578 10578 10583 10586 10587 10589 10590 10589 10589 10593 10597 10596 10602 10590 10584 10583 10587 10591 10585 10584 10585 10585 10581 10581 10580 10579 10578 10576 10574 10575 10576 10578 10579 10578 10576 10575 10574 10572 10570 10567 10564 10561 10555
10562 10563 10565 10564 10569 10571 10571 10569 10565 10570 10578 10574 10579 10571 10569 10567 10565 10569 10567 10561 10559 10558 10562 10561 10558 10556 10556 10554 10552 10549 10548 10547 10547 10549 10549 10549 10548 10548 10546 10544 10540 10535 10533 10532
10549 10550 10551 10549 10549 10553 10551 10545 10548 10553 10550 10555 10554 10554 10549 10545 10546 10545 10545 10542 10538 10535 10532 10534 10533 10531 10527 10523 10521 10518 10519 10518 10518 10521 10521 10520 10520 10520 10520 10518 10512 10507 10503 10500
10535 10535 10537 10532 10531 10532 10530 10528 10527 10526 10527 10533 10530 10535 10530 10527 10525 10519 10519 10519 10516 10513 10508 10504 10503 10503 10499 10496 10492 10492 10493 10493 10493 10494 10494 10493 10492 10492 10491 10489 10485 10481 10475 10468
10519 10521 10520 10513 10516 10514 10512 10506 10505 10505 10502 10502 10503 10503 10505 10505 10501 10496 10492 10488 10486 10486 10483 10479 10475 10473 10471 10470 10470 10471 10470 10470 10469 10471 10471 10470 10469 10469 10465 10461 10456 10451 10447 10441
10505 10505 10504 10499 10495 10496 10491 10487 10482 10483 10481 10479 10478 10477 10476 10473 10474 10469 10469 10465 10464 10462 10459 10457 10454 10453 10451 10450 10451 10453 10452 10451 10450 10449 10450 10450 10448 10444 10440 10436 10431 10426 10421 10416
10491 10489 10490 10484 10478 10477 10468 10467 10464 10464 10464 10459 10459 10456 10454 10453 10451 10451 10454 10450 10448 10445 10443 10440 10438 10437 10436 10437 10437 10437 10434 10436 10435 10435 10434 10431 10428 10425 10419 10415 10410 10404 10398 10392
10477 10474 10473 10468 10466 10462 10451 10444 10445 10448 10448 10443 10440 10439 10438 10436 10436 10440 10438 10435 10435 10433 10431 10429 10428 10428 10426 10425 10424 10423 10424 10424 10424 10423 10421 10418 10414 10409 10404 10398 10392 10384 10379 10374
10461 10459 10455 10451 10449 10445 10440 10433 10426 10431 10431 10426 10425 10424 10423 10423 10424 10426 10427 10426 10424 10424 10423 10422 10422 10421 10420 10418 10418 10419 10419 10419 10417 10415 10411 10407 10403 10397 10390 10382 10372 10365 10359 10354
10446 10442 10437 10432 10429 10428 10424 10419 10416 10416 10414 10413 10413 10412 10414 10414 10415 10417 10418 10418 10417 10415 10415 10416 10416 10416 10415 10417 10418 10418 10418 10416 10414 10410 10404 10397 10390 10382 10373 10364 10354 10347 10341 10335
10431 10426 10421 10416 10414 10411 10410 10406 10406 10405 10404 10403 10403 10406 10406 10407 10408 10409 10410 10411 10411 10412 10413 10412 10413 10415 10417 10417 10417 10417 10416 10413 10408 10402 10395 10386 10376 10366 10357 10348 10339 10330 10323 10319
10417 10410 10407 10405 10399 10399 10395 10395 10395 10395 10394 10395 10399 10400 10400 10401 10402 10403 10404 10405 10406 10408 10409 10412 10414 10415 10416 10416 10416 10414 10412 10408 10403 10394 10384 10372 10361 10349 10338 10329 10321 10314 10307 10303
10400 10397 10396 10390 10390 10386 10387 10385 10386 10386 10387 10391 10393 10394 10395 10395 10397 10398 10399 10401 10403 10406 10410 10412 10413 10414 10415 10414 10412 10410 10407 10402 10393 10383 10371 10358 10346 10334 10322 10313 10306 10299 10292 10288
10386 10385 10382 10380 10379 10377 10377 10377 10377 10380 10384 10386 10387 10388 10389 10391 10393 10395 10398 10400 10403 10406 10409 10412 10413 10413 10413 10410 10408 10405 10401 10394 10385 10374 10362 10348 10333 10321 10310 10300 10291 10285 10279 10274